DW8305 Weather Reports


time (UTC)temp
C
wind
direction
speed
KPH
gust
KPH
rain 1hr
cm
rain 24hr
cm
rain mn
cm
humidity
%
barometer
mb
20260507110916 8 45 1.6 3.2 0.00 2.51 0.36 91 1017.2
20260507105916 8 23 6.4 8.0 0.00 2.62 0.36 91 1017.2
20260507104916 8 68 1.6 3.2 0.00 2.62 0.36 91 1017.1
20260507103916 8 45 1.6 4.8 0.00 2.62 0.36 91 1017.0
20260507102916 8 90 3.2 4.8 0.00 2.62 0.36 91 1016.9
20260507101916 8 45 4.8 8.0 0.00 2.62 0.36 92 1016.8
20260507100916 8 45 6.4 11.3 0.00 2.62 0.36 92 1016.7
20260507095956 8 68 1.6 3.2 0.00 2.69 0.36 92 1016.6
20260507094936 8 0.0 1.6 0.00 2.69 0.36 92 1016.5
20260507093916 8 45 4.8 9.7 0.00 2.69 0.36 92 1016.4
20260507092916 8 23 4.8 9.7 0.00 2.69 0.36 92 1016.2
20260507091916 8 68 6.4 9.7 0.00 2.69 0.36 92 1016.1
20260507090916 8 68 4.8 8.0 0.00 2.69 0.36 92 1016.0
20260507085936 7 0.0 1.6 0.00 2.90 0.36 92 1015.9
20260507084916 7 68 3.2 4.8 0.00 2.90 0.36 92 1015.9
20260507083916 7 90 1.6 3.2 0.00 2.90 0.36 92 1015.8
20260507082916 7 68 3.2 4.8 0.00 2.90 0.36 92 1015.7
20260507081916 7 68 1.6 4.8 0.00 2.90 0.36 92 1015.7
20260507080916 7 45 3.2 11.3 0.00 2.90 0.36 92 1015.6
20260507075916 7 90 1.6 3.2 0.00 3.15 0.36 92 1015.5
20260507074936 7 68 3.2 6.4 0.00 3.15 0.36 92 1015.4
20260507073916 7 45 1.6 3.2 0.00 3.15 0.36 92 1015.1
20260507072936 7 68 6.4 8.0 0.00 3.15 0.36 92 1015.1
20260507071916 7 68 1.6 3.2 0.00 3.15 0.36 92 1015.0
20260507070916 7 45 3.2 4.8 0.00 3.15 0.36 92 1015.0
20260507065916 7 68 3.2 8.0 0.00 3.33 0.36 92 1014.9
20260507064916 7 113 3.2 6.4 0.00 3.33 0.36 92 1014.8
20260507063916 7 90 3.2 6.4 0.00 3.33 0.36 92 1014.6
20260507062916 7 45 4.8 6.4 0.00 3.33 0.36 92 1014.5
20260507061915 7 90 1.6 4.8 0.00 3.33 0.36 92 1014.4
20260507060916 7 90 3.2 4.8 0.00 3.33 0.36 92 1014.3
20260507055916 7 90 4.8 8.0 0.00 3.51 0.36 92 1014.1
20260507054916 7 45 4.8 9.7 0.00 3.51 0.36 92 1013.9
20260507053916 7 90 3.2 8.0 0.00 3.51 0.36 92 1013.9
20260507052915 7 68 3.2 6.4 0.00 3.51 0.36 92 1013.8
20260507051916 7 90 1.6 3.2 0.00 3.51 0.36 92 1013.7
20260507050915 7 45 3.2 4.8 0.00 3.51 0.36 92 1013.6
20260507045915 7 45 3.2 6.4 0.00 3.71 0.36 93 1013.5
20260507044916 7 45 3.2 3.2 0.03 3.71 0.36 93 1013.4
20260507043915 7 45 1.6 4.8 0.03 3.71 0.36 93 1013.3
20260507042916 7 158 3.2 8.0 0.03 3.71 0.36 93 1013.2
20260507041915 7 0.0 1.6 0.03 3.71 0.36 93 1013.1
20260507040956 7 23 4.8 9.7 0.03 3.71 0.36 93 1012.9
20260507035915 7 23 4.8 4.8 0.03 3.96 0.36 93 1012.9
20260507034915 7 338 1.6 4.8 0.00 3.94 0.33 93 1012.8
20260507033915 7 45 3.2 6.4 0.00 3.94 0.33 93 1012.7
20260507032915 7 0.0 3.2 0.00 3.94 0.33 93 1012.7
20260507031935 7 45 1.6 1.6 0.00 3.94 0.33 93 1012.6
20260507030916 7 45 1.6 4.8 0.00 3.94 0.33 93 1012.5
20260507025916 7 23 6.4 8.0 0.00 4.09 0.33 93 1012.4
20260507024916 8 45 3.2 4.8 0.00 4.09 0.33 93 1012.3
20260507023916 8 45 3.2 6.4 0.03 4.09 0.33 93 1012.2
20260507022915 8 45 3.2 4.8 0.03 4.09 0.33 93 1012.1
20260507021915 8 45 1.6 3.2 0.03 4.09 0.33 93 1012.2
20260507020936 8 0 1.6 4.8 0.03 4.09 0.33 93 1012.0
20260507015915 8 338 1.6 3.2 0.03 4.19 0.33 93 1011.9
20260507014915 8 0.0 1.6 0.03 4.19 0.33 93 1011.9
20260507013915 8 0.0 3.2 0.03 4.17 0.33 93 1011.8
20260507012936 8 23 3.2 4.8 0.03 4.17 0.33 93 1011.8
20260507011915 8 23 3.2 4.8 0.03 4.17 0.33 93 1011.8
20260507010915 8 45 1.6 3.2 0.03 4.17 0.33 93 1011.8
20260507005916 8 45 1.6 4.8 0.05 4.19 0.33 93 1011.7
20260507004915 8 0.0 1.6 0.05 4.19 0.33 93 1011.7
20260507003936 8 45 1.6 3.2 0.05 4.19 0.30 93 1011.6
20260507002915 8 23 3.2 6.4 0.05 4.19 0.30 93 1011.6
20260507001916 8 45 6.4 12.9 0.10 4.19 0.30 93 1011.5
20260507000915 8 45 4.8 6.4 0.13 4.19 0.30 93 1011.5
20260506235915 8 45 3.2 4.8 0.15 4.17 0.28 93 1011.4
20260506234915 8 45 3.2 6.4 0.15 4.14 0.25 93 1011.4
20260506233936 8 90 3.2 4.8 0.15 4.11 0.23 93 1011.4
20260506232916 8 90 1.6 3.2 0.18 4.11 0.23 93 1011.3
20260506231916 8 45 3.2 6.4 0.15 4.09 0.20 93 1011.2
20260506230916 8 45 4.8 6.4 0.15 4.06 0.18 93 1011.3
20260506225936 8 45 1.6 1.6 0.15 4.01 0.15 93 1011.2
20260506224915 8 0.0 1.6 0.15 3.99 0.13 93 1011.2
20260506223916 8 0.0 0.0 0.13 3.99 0.10 93 1011.0
20260506222915 8 0.0 1.6 0.08 3.94 0.05 93 1011.0
20260506221916 8 0.0 1.6 0.05 3.91 0.05 93 1010.9
20260506220916 8 45 4.8 6.4 0.05 3.91 0.03 93 1010.9
20260506215916 8 45 3.2 4.8 0.05 3.89 3.89 93 1010.8
20260506214916 8 68 3.2 6.4 0.05 3.86 3.86 93 1010.8
20260506213936 8 45 3.2 6.4 0.08 3.86 3.86 93 1010.6
20260506212916 8 45 4.8 8.0 0.13 3.86 3.86 93 1010.6
20260506211916 8 68 3.2 8.0 0.15 3.86 3.86 94 1010.4
20260506210916 8 90 3.2 4.8 0.20 3.84 3.84 94 1010.4
20260506205916 8 45 3.2 4.8 0.28 3.81 3.81 94 1010.5
20260506204916 8 45 1.6 3.2 0.33 3.81 3.81 94 1010.5
20260506203936 8 0.0 1.6 0.38 3.78 3.78 94 1010.4
20260506202936 8 45 3.2 8.0 0.41 3.73 3.73 94 1010.4
20260506201916 8 45 4.8 11.3 0.43 3.71 3.71 94 1010.3
20260506200916 8 45 3.2 4.8 0.46 3.63 3.63 94 1010.2
20260506195916 8 45 6.4 9.7 0.43 3.53 3.53 94 1010.2
20260506194916 8 45 4.8 8.0 0.43 3.45 3.45 94 1010.2
20260506193916 8 338 3.2 9.7 0.41 3.40 3.40 94 1010.1
20260506192916 8 45 3.2 9.7 0.36 3.33 3.33 94 1010.1
20260506191936 8 23 1.6 4.8 0.33 3.25 3.25 94 1009.9
20260506190916 8 45 3.2 4.8 0.28 3.15 3.15 94 1009.9
20260506185916 8 23 6.4 9.7 0.25 3.07 3.07 94 1009.7
20260506184916 8 23 8.0 11.3 0.25 3.05 3.05 94 1009.6
20260506183916 8 23 4.8 9.7 0.25 3.00 3.00 94 1009.4
20260506182916 8 0 3.2 8.0 0.30 2.97 2.97 94 1009.3
20260506181916 8 338 3.2 6.4 0.28 2.92 2.92 94 1009.3
20260506180936 8 45 4.8 12.9 0.28 2.87 2.87 94 1009.2
20260506175916 8 45 4.8 11.3 0.33 2.82 2.82 94 1009.2
20260506174916 8 45 4.8 11.3 0.33 2.77 2.77 94 1009.1
20260506173916 8 23 4.8 11.3 0.33 2.74 2.74 94 1009.1
20260506172916 8 0 1.6 3.2 0.38 2.69 2.69 94 1009.2
20260506171916 8 45 1.6 3.2 0.43 2.62 2.62 94 1009.1
20260506170916 8 0.0 1.6 0.48 2.59 2.59 94 1008.9
20260506165916 8 23 3.2 6.4 0.48 2.49 2.49 94 1008.9
20260506164916 8 0 1.6 4.8 0.51 2.46 2.46 95 1008.9
20260506163916 8 45 4.8 8.0 0.46 2.39 2.39 95 1008.9
20260506162916 8 0 1.6 3.2 0.36 2.29 2.29 95 1008.9
20260506161916 8 0 1.6 6.4 0.25 2.18 2.18 95 1008.9
20260506160916 8 0.0 0.0 0.18 2.08 2.08 95 1008.9
20260506155916 8 45 3.2 4.8 0.13 2.03 2.03 95 1008.8
20260506154916 8 45 6.4 9.7 0.08 1.96 1.96 95 1008.8
20260506153916 8 45 4.8 11.3 0.05 1.93 1.93 95 1008.8
20260506152936 8 45 4.8 8.0 0.05 1.93 1.93 95 1008.7
20260506151916 8 23 4.8 8.0 0.08 1.93 1.93 95 1008.8
20260506150916 8 0 3.2 4.8 0.05 1.91 1.91 95 1008.7
20260506145916 8 68 3.2 6.4 0.05 1.91 1.91 95 1008.7
20260506144916 8 23 4.8 11.3 0.05 1.88 1.88 95 1008.6
20260506143916 8 45 1.6 4.8 0.08 1.88 1.88 95 1008.5
20260506142916 8 68 6.4 14.5 0.08 1.85 1.85 95 1008.6
20260506141936 8 45 6.4 12.9 0.08 1.83 1.83 95 1008.6
20260506140916 8 45 3.2 6.4 0.08 1.83 1.83 95 1008.6
20260506135916 8 45 6.4 9.7 0.10 1.83 1.83 95 1008.6
20260506134916 8 45 4.8 11.3 0.08 1.83 1.83 95 1008.7
20260506133917 8 45 4.8 8.0 0.05 1.80 1.80 95 1008.7
20260506132916 8 68 6.4 12.9 0.05 1.78 1.78 95 1008.7
20260506131916 8 45 6.4 9.7 0.03 1.75 1.75 96 1008.6
20260506130916 8 45 8.0 14.5 0.03 1.75 1.75 96 1008.6
20260506125936 8 45 4.8 8.0 0.00 1.75 1.75 96 1008.6
20260506124916 8 45 6.4 12.9 0.03 1.75 1.75 96 1008.5
20260506123916 8 68 8.0 9.7 0.03 1.75 1.75 96 1008.5
20260506122916 8 45 4.8 11.3 0.03 1.75 1.75 96 1008.4
20260506121916 8 68 4.8 9.7 0.03 1.75 1.75 96 1008.4
20260506120936 8 68 4.8 8.0 0.03 1.75 1.75 96 1008.4
20260506115916 8 45 11.3 16.1 0.03 1.75 1.75 96 1008.2
20260506114916 8 45 4.8 8.0 0.03 1.73 1.73 96 1008.3
20260506113916 8 45 6.4 12.9 0.03 1.73 1.73 96 1008.3
20260506112916 8 68 6.4 9.7 0.05 1.73 1.73 96 1008.4
20260506111916 8 45 6.4 11.3 0.05 1.73 1.73 96 1008.4